Weather Roundup
Issued by NWS

Home | Current Version | Previous Version | Text Only | Print | Product List | Glossary On
Versions: 1 2 3 4 5 6 7 8 9 10 11 12 13 14 15 16 17 18 19 20 21 22 23 24 25 26 27 28 29 30 31 32 33 34 35 36 37 38 39 40 41 42 43 44 45 46 47 48 49 50
000
NZUS93 KARX 221410
HRRWXR

CURRENT HOURLY OBSERVATIONS ACROSS
MUCH OF THE UPPER MISSISSIPPI VALLEY
NATIONAL WEATHER SERVICE LA CROSSE WI
800 AM CST WED FEB 22 2017


...SOUTHEAST MINNESOTA...


CITY           SKY/WX    TMP DP  RH WIND       PRES   REMARKS
ROCHESTER      FAIR      39  35  86 S9        29.59F WCI  33
ROCHESTER/MAYO FAIR      40  35  80 SE6       29.58F
WINONA         FAIR      45  36  70 CALM      29.62F
AUSTIN         FAIR      39  34  81 S8        29.60S WCI  34
ALBERT LEA     FAIR      43  36  75 S6        29.59S
DODGE CENTER   FAIR      39  36  87 S5        29.58S
PRESTON        FAIR      40  33  76 S12       29.62S WCI  33
OWATONNA       FAIR      39  36  87 SE7       29.58F WCI  34
FARIBAULT      FAIR      39  36  87 CALM      29.59S
$$

...ELSEWHERE IN MINNESOTA...


CITY           SKY/WX    TMP DP  RH WIND       PRES   REMARKS
MINNEAPOLIS    MOCLDY    41  38  89 NE3       29.59F
INTNL FALLS    CLOUDY    33  30  88 N5        29.69S WCI  29
DULUTH         CLOUDY    37  35  92 CALM      29.63R
RED WING       FAIR      37  34  87 CALM      29.60S
REDWOOD FALLS  MOCLDY    39  36  89 NW5       29.61R
MANKATO        NOT AVBL
WORTHINGTON    FAIR      39  33  79 SW16      29.63R WCI  30
FAIRMONT       FAIR      43  35  73 SW16      29.59S
$$

...SOUTHWEST WISCONSIN...


CITY           SKY/WX    TMP DP  RH WIND       PRES   REMARKS
LA CROSSE      FAIR      47  36  65 S9        29.63F
PRAIRIE DU CHI FAIR      42  35  76 CALM      29.68S
BOSCOBEL       FAIR      37  35  92 CALM      29.69S
LONE ROCK      FAIR      47  43  86 E3        29.69F
PLATTEVILLE    CLOUDY    46  46 100 S13       29.70F VSB<1/4
FORT MC COY    FAIR      51  37  58 S5        29.63F
CAMP DOUGLAS   MOSUNNY   48  39  71 S9        29.63F
MAUSTON-NEW LI FAIR      52  40  62 S8        29.64F
VIROQUA        FAIR      47  36  64 S7        29.65F
WIS DELLS      FAIR      51  42  70 CALM      29.67F
$$

...ELSEWHERE IN WISCONSIN...


CITY           SKY/WX    TMP DP  RH WIND       PRES   REMARKS
MILWAUKEE      CLOUDY    53  51  93 SW14G24   29.75F FOG
MADISON        FAIR      48  47  96 S9        29.71F FOG
GREEN BAY      FAIR      43  42  97 S3        29.68F
EAU CLAIRE     FAIR      41  37  86 N3        29.60R
BLACK RVR FLS  FAIR      38  38  99 CALM      29.61F
MEDFORD        DRIZZLE   39  35  85 E5        29.58F
WAUSAU         CLOUDY    41  36  82 SE8       29.58F
WIS RAPIDS     FAIR      47  39  74 S5        29.64F
MARSHFIELD     FAIR      43  35  73 CALM      29.61F
RICE LAKE      CLOUDY    35  35  99 CALM      29.61S FOG
$$

...NORTHEAST IOWA...


CITY           SKY/WX    TMP DP  RH WIND       PRES   REMARKS
WATERLOO       FAIR      45  34  65 S7        29.66F
DUBUQUE        FAIR      47  47 100 S14       29.70F FOG
DECORAH        FAIR      45  34  65 S9        29.64F
MASON CITY     FAIR      39  34  82 S10       29.63F WCI  32
CHARLES CITY   FAIR      39  37  93 S9        29.65S WCI  33
OELWEIN        FAIR      41  37  87 S9        29.67F
$$

...ELSEWHERE IN IOWA...


CITY           SKY/WX    TMP DP  RH WIND       PRES   REMARKS
DES MOINES     FAIR      50  33  52 S9        29.68F
IOWA CITY      CLOUDY    48  47  96 E5        29.75F FOG
FORT DODGE     FAIR      43  34  70 S5        29.63F
MARSHALLTOWN   FAIR      49  35  58 SW10      29.66F
CEDAR RAPIDS   FAIR      49  48  97 S15       29.70F
$$

...NORTHERN ILLINOIS...


CITY           SKY/WX    TMP DP  RH WIND       PRES   REMARKS
CHICAGO-OHARE  FOG       53  52  96 SW9       29.78F VSB 3/4
CHICAGO-MIDWAY FOG       54  52  93 S10       29.78F VSB 1/2
MOLINE         CLOUDY    54  51  90 SW10      29.76F FOG
ROCKFORD       FOG       52  51  97 S7        29.80S VSB 1/8
PEORIA         FOG       53  53 100 SW10      29.81S VSB 1/4
$$

NOTE: "FAIR" INDICATES FEW OR NO CLOUDS BELOW 12,000 FEET WITH NO
SIGNIFICANT WEATHER AND/OR OBSTRUCTIONS TO VISIBILITY. WIND
SPEEDS ARE IN MILES-PER-HOUR.




USA.gov is the U.S. government's official web portal to all federal, state and local government web resources and services.